Overview Statistics Trail Chart Weather Telemetry Raw packets
 

This is the latest recevied weather packets stored in our database for station/object KC3BHK-2. If no packets are shown the sender has not sent any weather packets the latest 10 day(s).

<< 7 8 9 10 11 12 13 >>
Time Temp. Humidity Pressure Rain* Wind** Luminosity Snow
1788538563 30° C - - 0 mm 2.24 m/s, 283° - -
1788538258 30.56° C - - 0 mm 0 m/s - -
1788537953 30.56° C - - 0 mm 2.68 m/s, 274° - -
1788537649 31.11° C - - 0 mm 2.24 m/s, 290° - -
1788537344 30.56° C - - 0 mm 1.79 m/s, 269° - -
1788537039 30.56° C - - 0 mm 1.79 m/s, 269° - -
1788536746 30.56° C - - 0 mm 0.89 m/s, 283° - -
1788536426 30° C - - 0 mm 0.45 m/s, 346° - -
1788536121 30.56° C - - 0 mm 0.45 m/s, 219° - -
1788535817 28.89° C - - 0 mm 1.34 m/s, 273° - -
1788535512 29.44° C - - 0 mm 2.24 m/s, 264° - -
1788535222 30° C - - 0 mm 2.68 m/s, 246° - -
1788534898 28.89° C - - 0 mm 0.89 m/s, 253° - -
1788534289 28.33° C - - 0 mm 0.89 m/s, 285° - -
1788533984 27.78° C - - 0 mm 2.68 m/s, 246° - -
1788533679 27.78° C - - 0 mm 2.68 m/s, 281° - -
1788533374 27.78° C - - 0 mm 3.13 m/s, 233° - -
1788532762 28.89° C - - 0 mm 2.24 m/s, 269° - -
1788532457 27.78° C - - 0 mm 0.89 m/s, 294° - -
1788532175 27.22° C - - 0 mm 2.68 m/s, 263° - -
1788531847 26.67° C - - 0 mm 3.13 m/s, 255° - -
1788531543 26.67° C - - 0 mm 2.24 m/s, 280° - -
1788530929 26.11° C - - 0 mm 4.47 m/s, 269° - -
1788530644 26.11° C - - 0 mm 2.68 m/s, 270° - -
1788530320 25.56° C - - 0 mm 4.47 m/s, 273° - -

* Rain latest hour (hover to see other rain measurements)
** Current wind speed in m/s (hover to see current wind gust speed)